Tuesday, February 20, 2018, 4:38 AM EST
Back to Local

KCON, Concord, Concord Municipal Airport

Location: Concord, NH, United States Lat: 43.195
Local Time: 4:38 AM EST ( 9:38 GMT) Lon: -71.501
Time Zone: US/Eastern Elev: 344 ft

Show me the last for .
Show Decoded

2018-02-20 03:51 METAR KCON 200851Z AUTO 13005KT 6SM -RA BR FEW065 OVC100 06/05 A3019 RMK AO2
                 RAB01 SLP224 P0002 60002 T00610050 56013 =
2018-02-20 02:51 METAR KCON 200751Z AUTO 14005KT 5SM BR FEW016 BKN050 OVC080 06/04 A3019 RMK AO2
                 RAB0657E06 SLP226 P0000 T00560044 =
2018-02-20 02:11 METAR KCON 200711Z AUTO 17005KT 3SM BR FEW042 BKN055 OVC080 05/04 A3020 RMK AO2
                 RAB0657E06 P0000 T00500039 =
2018-02-20 01:59 METAR KCON 200659Z AUTO 17003KT 1 3/4SM -RA BR BKN044 BKN055 OVC080 06/04 A3021
                 RMK AO2 RAB57 P0000 T00560044 =
2018-02-20 01:51 METAR KCON 200651Z AUTO 00000KT 8SM BKN044 BKN050 OVC080 06/04 A3021 RMK AO2
                 SLP232 T00560044 =
2018-02-20 00:51 METAR KCON 200551Z AUTO 15005KT 10SM BKN040 OVC049 06/04 A3022 RMK AO2 SLP237
                 60010 T00560044 10061 20033 55009 =
2018-02-20 00:29 METAR KCON 200529Z AUTO 16006KT 10SM SCT018 SCT038 OVC047 05/04 A3023 RMK AO2
                 T00500039 =
2018-02-19 23:51 METAR KCON 200451Z AUTO 14005KT 8SM BKN018 OVC085 05/04 A3022 RMK AO2 RAE02
                 SLP237 P0000 T00500039 400781111 =
2018-02-19 22:51 METAR KCON 200351Z AUTO 15005KT 6SM -RA BR OVC019 04/03 A3024 RMK AO2 SLP243
                 P0001 T00440033 =
2018-02-19 21:58 METAR KCON 200258Z AUTO 15004KT 7SM -RA BKN021 BKN065 OVC080 04/03 A3025 =
2018-02-19 21:51 METAR KCON 200251Z AUTO 16005KT 9SM -RA SCT021 BKN070 OVC090 04/03 A3025 RMK AO2
                 SLP248 P0002 60009 T00440033 58009 =
2018-02-19 21:08 METAR KCON 200208Z AUTO 17007KT 9SM -RA SCT020 BKN065 OVC080 04/03 A3026 RMK AO2
                 P0001 T00390028 =
2018-02-19 20:51 METAR KCON 200151Z AUTO 17008KT 7SM -RA BKN019 BKN027 OVC044 04/03 A3027 RMK AO2
                 SLP255 P0007 T00390028 =
2018-02-19 19:51 METAR KCON 200051Z AUTO 21003KT 8SM -RA OVC020 06/02 A3029 RMK AO2 SLP262 P0000
                 T00560022 =
2018-02-19 19:06 METAR KCON 200006Z AUTO 18008KT 10SM -RA OVC029 05/02 A3027 RMK AO2 P0000
                 T00500017 =
2018-02-19 18:51 METAR KCON 192351Z AUTO 17006KT 10SM -RA OVC030 04/01 A3028 RMK AO2 SLP259 P0001
                 60001 T00440011 10078 20044 58013 =
2018-02-19 17:51 METAR KCON 192251Z AUTO 15004KT 10SM -RA OVC035 06/00 A3030 RMK AO2 RAB39 SLP265
                 P0000 T00610000 =
2018-02-19 16:51 METAR KCON 192151Z AUTO 16006KT 10SM OVC040 06/00 A3031 RMK AO2 SLP269 T00610000
                 =
2018-02-19 15:51 METAR KCON 192051Z AUTO 15007KT 10SM OVC042 07/M01 A3032 RMK AO2 SLP272
                 T00671011 56018 =
2018-02-19 14:51 METAR KCON 191951Z AUTO 16010KT 10SM OVC046 08/M02 A3032 RMK AO2 SLP273
                 T00781022 =
2018-02-19 13:51 METAR KCON 191851Z AUTO 16010KT 10SM FEW050 07/M02 A3034 RMK AO2 SLP279
                 T00721017 =
2018-02-19 12:51 METAR KCON 191751Z AUTO 17009KT 10SM CLR 06/M02 A3037 RMK AO2 SLP290 T00561017
                 10061 21106 56040 =
2018-02-19 11:51 METAR KCON 191651Z AUTO 15012KT 10SM CLR 04/M03 A3041 RMK AO2 SLP301 T00391028 =
2018-02-19 10:51 METAR KCON 191551Z AUTO 16008KT 10SM CLR 02/M03 A3045 RMK AO2 PRESFR SLP316
                 T00221033 =
2018-02-19 09:51 METAR KCON 191451Z AUTO 16005KT 10SM CLR 01/M04 A3049 RMK AO2 SLP331 T00061039
                 55007 =
2018-02-19 08:51 METAR KCON 191351Z AUTO 00000KT 10SM CLR M03/M05 A3049 RMK AO2 SLP330 T10331050
                 =
2018-02-19 07:51 METAR KCON 191251Z AUTO 00000KT 9SM CLR M08/M08 A3051 RMK AO2 SLP336 T10781083 =
2018-02-19 06:51 METAR KCON 191151Z AUTO 00000KT 9SM CLR M10/M12 A3052 RMK AO2 SLP340 I1000 I6000
                 T11001117 11067 21111 50005 =
2018-02-19 05:51 METAR KCON 191051Z AUTO 00000KT 10SM CLR M09/M13 A3053 RMK AO2 SLP346 T10941128
                 =
2018-02-19 04:51 METAR KCON 190951Z AUTO 00000KT 10SM CLR M09/M12 A3051 RMK AO2 SLP339 I1000
                 T10941117 =

Support USWX by starting your Amazon purchase here.